Location: ??????????
(54.7560°N, 39.1389°E)
Time: 03:27:59
(UTC+00:00)

Cosmos 2084 Rocket - Pass Details

Date: 19 May 2025
Orbit: 542 x 579 km, 62.8° (Epoch: 19 June)

Event Time Altitude Azimuth Distance (km) Brightness Sun altitude
Rises 18:41:51 0° 195° (SSW) 2,780 6.5 -8.0°
Reaches altitude 10° 18:44:18 10° 184° (S) 1,882 5.6 -8.2°
Maximum altitude 18:47:55 28° 125° (SE) 1,095 4.3 -8.6°
Drops below altitude 10° 18:51:32 10° 66° (ENE) 1,877 5.9 -8.9°
Sets 18:53:59 0° 55° (NE) 2,772 6.9 -9.1°
